Location: Espelette
(43.3402°N, 1.4474°W)
Time: 22:22:34
(UTC+00:00)

Okean O Rocket - Pass Details

Date: 19 May 2025
Orbit: 614 x 636 km, 98.0° (Epoch: 12 June)

Event Time Altitude Azimuth Distance (km) Brightness Sun altitude
Exits shadow 21:34:42 - 211° (SSW) 2,223 4.2 -18.2°
Reaches altitude 10° 21:35:24 10° 217° (SW) 2,000 4.0 -18.3°
Maximum altitude 21:38:43 21° 266° (W) 1,411 3.7 -18.6°
Drops below altitude 10° 21:42:02 10° 316° (NW) 2,002 5.4 -19.0°
Sets 21:44:41 0° 333° (NNW) 2,909 6.6 -19.2°
